This is the latest recevied weather packets stored in our database for station/object DL1SEW-6. If no packets are shown the sender has not sent any weather packets the latest 1 day(s).
| Time | Temp. | Humidity | Pressure | Rain* | Wind** | Luminosity | Snow |
|---|---|---|---|---|---|---|---|
| 1777989307 | 14.44° C | 78% | 1006.9 hPa | 0.51 mm | 0 m/s | 322 W/m² | - |
| 1777988406 | 14.44° C | 77% | 1007.1 hPa | 0.51 mm | 0 m/s | 225 W/m² | - |
| 1777987506 | 14.44° C | 82% | 1007.3 hPa | 0.51 mm | 0 m/s | 167 W/m² | - |
| 1777986606 | 14.44° C | 82% | 1007.6 hPa | 0.51 mm | 0 m/s | 111 W/m² | - |
| 1777985706 | 14.44° C | 82% | 1007.6 hPa | 0.51 mm | 0 m/s | 127 W/m² | - |
| 1777984806 | 14.44° C | 82% | 1007.8 hPa | 0.51 mm | 0 m/s | 138 W/m² | - |
| 1777983907 | 14.44° C | 82% | 1008 hPa | 0.76 mm | 0 m/s | 145 W/m² | - |
| 1777983015 | 14.44° C | 81% | 1007.9 hPa | 0.76 mm | 0 m/s | 147 W/m² | - |
| 1777982107 | 14.44° C | 80% | 1007.9 hPa | 0.76 mm | 0 m/s | 144 W/m² | - |
| 1777981206 | 15° C | 80% | 1007.9 hPa | 1.02 mm | 0 m/s | 157 W/m² | - |
| 1777980311 | 15° C | 80% | 1007.9 hPa | 0.76 mm | 0.45 m/s, 187° | 166 W/m² | - |
| 1777979409 | 15.56° C | 79% | 1007.9 hPa | 0.51 mm | 0.45 m/s, 193° | 192 W/m² | - |
| 1777978509 | 16.11° C | 77% | 1007.9 hPa | 0.51 mm | 0 m/s | 172 W/m² | - |
| 1777977610 | 16.67° C | 70% | 1008 hPa | 0 mm | 0.45 m/s, 168° | 104 W/m² | - |
| 1777976709 | 17.22° C | 63% | 1007.9 hPa | 0 mm | 0 m/s | 99 W/m² | - |
| 1777975810 | 17.78° C | 61% | 1007.9 hPa | 0 mm | 0 m/s | 190 W/m² | - |
| 1777974911 | 17.78° C | 59% | 1007.9 hPa | 0 mm | 0 m/s | 208 W/m² | - |
| 1777974008 | 18.33° C | 59% | 1008.1 hPa | 0 mm | 0 m/s | 360 W/m² | - |
| 1777973108 | 17.78° C | 61% | 1008.1 hPa | 0 mm | 0 m/s | 512 W/m² | - |
| 1777972208 | 17.78° C | 61% | 1008.2 hPa | 0 mm | 0.45 m/s, 331° | 513 W/m² | - |
| 1777971308 | 17.78° C | 61% | 1008.3 hPa | 0 mm | 0 m/s | 431 W/m² | - |
| 1777970408 | 17.22° C | 62% | 1008.3 hPa | 0 mm | 0 m/s | 695 W/m² | - |
| 1777969508 | 16.11° C | 66% | 1008.4 hPa | 0 mm | 0.45 m/s, 275° | 657 W/m² | - |
| 1777968607 | 15.56° C | 65% | 1008.3 hPa | 0 mm | 0 m/s | 390 W/m² | - |
| 1777967707 | 15.56° C | 67% | 1008.4 hPa | 0 mm | 0 m/s | 394 W/m² | - |
* Rain latest hour (hover to see other rain measurements)
** Current wind speed in m/s (hover to see current wind gust speed)